Location: Olomouc
(49.5830°N, 17.2500°E)
Time: 05:35:17
(UTC+02:00)

ISS - Pass Details

Date: 23 May 2021
Orbit: 417 x 422 km, 51.6° (Epoch: 13 June)

Event Time Altitude Azimuth Distance (km) Brightness Sun altitude
Rises 23:47:15 0° 289° (WNW) 2,369 0.5 -18.4°
Reaches altitude 10° 23:49:23 10° 284° (WNW) 1,504 -0.6 -18.5°
Enters shadow 23:52:20 48° 230° (SW) 556 -3.4 -18.6°
